Weather Data

Pearl Creek Farm: 8878 N Farm Road 75, Walnut Grove MO 65770

<== Previous Day (Saturday 06 Sep 2014) | Next Day (Monday 08 Sep 2014) ==>

Summary Precipitation Data For Sunday 07 September 2014

ElementValueUnits
Precipitation0.02"
Notes(none)
SourcePearl Creek Farm

Summary Temperature Data For Sunday 07 September 2014

ElementValueUnits
High Temperature77 oF
Low Temperature55 oF
Average Temperature65 oF
High Humidity93 %
Low Humidity63 %
Average Humidity81 %
SourcePearl Creek Farm

Detail Temperature Data For Sunday 07 September 2014

Date / TimeTemp (F)RH (%)Dew Pt (F)Report Date / TimeSource
2014-09-07 00:00:00 61 87 57.1 2014-11-02 13:41:02 Pearl Creek Farm
2014-09-07 00:30:00 60 88 56.3 2014-11-02 13:41:02 Pearl Creek Farm
2014-09-07 01:00:00 60 87 56.1 2014-11-02 13:41:02 Pearl Creek Farm
2014-09-07 01:30:00 59 87 55.1 2014-11-02 13:41:02 Pearl Creek Farm
2014-09-07 02:00:00 58 87 54.2 2014-11-02 13:41:02 Pearl Creek Farm
2014-09-07 02:30:00 58 88 54.5 2014-11-02 13:41:02 Pearl Creek Farm
2014-09-07 03:00:00 57 88 53.5 2014-11-02 13:41:02 Pearl Creek Farm
2014-09-07 03:30:00 57 89 53.6 2014-11-02 13:41:02 Pearl Creek Farm
2014-09-07 04:00:00 56 88 52.3 2014-11-02 13:41:02 Pearl Creek Farm
2014-09-07 04:30:00 56 88 52.3 2014-11-02 13:41:02 Pearl Creek Farm
2014-09-07 05:00:00 56 88 52.5 2014-11-02 13:41:02 Pearl Creek Farm
2014-09-07 05:30:00 55 89 51.7 2014-11-02 13:41:02 Pearl Creek Farm
2014-09-07 06:00:00 55 89 51.8 2014-11-02 13:41:02 Pearl Creek Farm
2014-09-07 06:30:00 55 90 52.0 2014-11-02 13:41:02 Pearl Creek Farm
2014-09-07 07:00:00 55 90 52.0 2014-11-02 13:41:02 Pearl Creek Farm
2014-09-07 07:30:00 55 90 52.0 2014-11-02 13:41:02 Pearl Creek Farm
2014-09-07 08:00:00 55 91 52.3 2014-11-02 13:41:02 Pearl Creek Farm
2014-09-07 08:30:00 57 92 54.7 2014-11-02 13:41:02 Pearl Creek Farm
2014-09-07 09:00:00 59 93 57.0 2014-11-02 13:41:02 Pearl Creek Farm
2014-09-07 09:30:00 61 92 58.7 2014-11-02 13:41:02 Pearl Creek Farm
2014-09-07 10:00:00 62 90 59.0 2014-11-02 13:41:02 Pearl Creek Farm
2014-09-07 10:30:00 64 87 60.1 2014-11-02 13:41:02 Pearl Creek Farm
2014-09-07 11:00:00 66 85 61.4 2014-11-02 13:41:02 Pearl Creek Farm
2014-09-07 11:30:00 68 81 61.8 2014-11-02 13:41:02 Pearl Creek Farm
2014-09-07 12:00:00 70 78 62.6 2014-11-02 13:41:02 Pearl Creek Farm
2014-09-07 12:30:00 71 75 62.7 2014-11-02 13:41:02 Pearl Creek Farm
2014-09-07 13:00:00 73 74 64.0 2014-11-02 13:41:02 Pearl Creek Farm
2014-09-07 13:30:00 74 71 63.8 2014-11-02 13:41:02 Pearl Creek Farm
2014-09-07 14:00:00 75 67 63.3 2014-11-02 13:41:02 Pearl Creek Farm
2014-09-07 14:30:00 76 64 62.9 2014-11-02 13:41:02 Pearl Creek Farm
2014-09-07 15:00:00 77 65 64.3 2014-11-02 13:41:02 Pearl Creek Farm
2014-09-07 15:30:00 77 63 63.2 2014-11-02 13:41:02 Pearl Creek Farm
2014-09-07 16:00:00 77 63 63.4 2014-11-02 13:41:02 Pearl Creek Farm
2014-09-07 16:30:00 77 63 63.4 2014-11-02 13:41:02 Pearl Creek Farm
2014-09-07 17:00:00 77 65 64.3 2014-11-02 13:41:02 Pearl Creek Farm
2014-09-07 17:30:00 76 65 63.2 2014-11-02 13:41:02 Pearl Creek Farm
2014-09-07 18:00:00 76 68 64.7 2014-11-02 13:41:02 Pearl Creek Farm
2014-09-07 18:30:00 75 69 63.9 2014-11-02 13:41:02 Pearl Creek Farm
2014-09-07 19:00:00 74 71 63.8 2014-11-02 13:41:02 Pearl Creek Farm
2014-09-07 19:30:00 73 75 64.6 2014-11-02 13:41:02 Pearl Creek Farm
2014-09-07 20:00:00 71 78 63.6 2014-11-02 13:41:02 Pearl Creek Farm
2014-09-07 20:30:00 69 80 62.6 2014-11-02 13:41:02 Pearl Creek Farm
2014-09-07 21:00:00 68 80 61.6 2014-11-02 13:41:02 Pearl Creek Farm
2014-09-07 21:30:00 67 80 60.6 2014-11-02 13:41:02 Pearl Creek Farm
2014-09-07 22:00:00 67 82 61.3 2014-11-02 13:41:02 Pearl Creek Farm
2014-09-07 22:30:00 66 82 60.3 2014-11-02 13:41:02 Pearl Creek Farm
2014-09-07 23:00:00 65 84 59.9 2014-11-02 13:41:02 Pearl Creek Farm
2014-09-07 23:30:00 64 84 58.9 2014-11-02 13:41:02 Pearl Creek Farm

A total of 48 rows are displayed.